Home   Weather   Taunton   Past weeks

Flag for United Kingdom Past Weather in Taunton, England, United Kingdom — Yesterday and Last 2 Weeks

Now
30 °F

Chilly.


Feels Like: 22 °F
Forecast: 27 / 39 °F
Wind: 8 mph from East

Location: Dunkeswell Aerodrome

Current Time: Jan 21, 2017 at 4:54:55 am

Latest Report: Jan 21, 2017 at 4:00 am


Visibility: 7 mi

Pressure: 30.37 "Hg

Humidity: 90%

Dew Point: 27 °F

Location of TauntonLocation

Past Weather in Taunton — Graph

°F

Taunton Temperature Yesterday

Maximum temperature yesterday: 38 °F (at 2:00 pm)
Minimum temperature yesterday: 26 °F (at 8:00 am)
Average temperature yesterday: 32 °F

High & Low Weather Summary for the Past Weeks

 TemperatureHumidityPressure
High50 °F (Jan 7, 1:00 pm)100% (Jan 6, 5:00 pm)30.67 "Hg (Jan 6, 5:00 pm)
Low26 °F (Jan 20, 8:00 am)43% (Jan 19, 12:00 pm)29.44 "Hg (Jan 12, 3:00 pm)
Average41 °F88%30.30 "Hg
* Reported Jan 6 3:00 am — Jan 21 3:00 am, Taunton, Weather by CustomWeather, © 2017

Note: Actual official high and low records may vary slightly from our data, if they occured in-between our weather recording intervals... More about our weather records

Advertising

Taunton Weather History for the Previous 24 Hours

Scroll right to see more
 ConditionsComfort  
Time TempWeatherWind HumidityBarometerVisibility
3:00 am
Sat, Jan 21
33 °FChilly.7 mph86%30.38 "Hg7 mi
2:00 am33 °FChilly.7 mph85%30.39 "Hg9 mi
1:00 am32 °FChilly.7 mph82%30.40 "Hg11 mi
12:00 am31 °FChilly.8 mph80%30.40 "Hg12 mi
11:00 pm
Fri, Jan 20
30 °FChilly.8 mph75%30.42 "Hg14 mi
10:00 pm31 °FChilly.12 mph73%30.42 "Hg15 mi
9:00 pm31 °FChilly.9 mph77%30.42 "Hg14 mi
8:00 pm29 °FChilly.7 mph82%30.43 "Hg11 mi
7:00 pm31 °FChilly.10 mph76%30.43 "Hg11 mi
6:00 pm32 °FChilly.9 mph75%30.43 "Hg14 mi
5:00 pm33 °FChilly.7 mph75%30.43 "Hg13 mi
4:00 pm35 °FChilly.9 mph71%30.43 "Hg15 mi
3:00 pm37 °FChilly.10 mph65%30.43 "Hg16 mi
2:00 pm38 °FChilly.10 mph58%30.45 "Hg19 mi
1:00 pm38 °FChilly.10 mph58%30.46 "Hg22 mi
12:00 pm38 °FChilly.7 mph56%30.48 "Hg22 mi
11:00 am36 °FChilly.9 mph63%30.50 "Hg18 mi
10:00 am32 °FChilly.9 mph77%30.52 "Hg12 mi
9:00 am28 °FChilly.8 mph91%30.53 "Hg7 mi
8:00 am26 °FSmoke.10 mph92%30.52 "Hg6 mi
7:00 am28 °FChilly.9 mph90%30.52 "Hg7 mi
6:00 am28 °FChilly.8 mph91%30.52 "Hg7 mi
5:00 am28 °FChilly.9 mph89%30.54 "Hg8 mi
4:00 am29 °FChilly.9 mph84%30.53 "Hg10 mi
Weather by CustomWeather, © 2017

See weather overviewHow to use our weather pages